User: anonymous   Login
Location: *
(43.0409°N, 0.1694°E)
Time: 06:46:06
(UTC+00:00)
Language:

FENGYUN 1C DEB - Orbit

View from above orbital plane
View from above orbital plane
View from above satellite
View from above satellite

Ground track
Ground track

The orbit data is extracted from the following two-line orbital elements,

1 31522U 99025BXM 24171.37264687  .00001040  00000-0  69924-3 0  9994
2 31522  98.7551 205.3086 0042554 276.6797  82.9528 14.02390062874031
Epoch (UTC): 19 June 2024 08:56:36
Eccentricity: 0.0042554
inclination: 98.7551°
perigee height: 854 km
apogee height: 916 km
right ascension of ascending node: 205.3086°
argument of perigee: 276.6797°
revolutions per day: 14.02390062
mean anomaly at epoch: 82.9528°
orbit number at epoch: 87403

The dashed part of the orbit path shows where the satellite is in the earth's shadow,  

DLR